Time,TemperatureF,DewpointF,PressureIn,WindDirection,WindDirectionDegrees,WindSpeedMPH,WindSpeedGustMPH,Humidity,HourlyPrecipIn,Conditions,Clouds,dailyrainin,SoftwareType,DateUTC
2013-06-28 00:00:00,75.0,72.5,29.69,SW,216,0.0,0.0,92,0.00,,,0.00,Wunderground v.1.15,2013-06-28 04:00:00,
2013-06-28 00:05:00,75.0,72.5,29.69,SW,215,0.0,0.0,92,0.00,,,0.00,Wunderground v.1.15,2013-06-28 04:05:00,
2013-06-28 00:10:00,74.9,72.4,29.69,SW,216,0.0,0.0,92,0.00,,,0.00,Wunderground v.1.15,2013-06-28 04:10:00,
2013-06-28 00:15:00,74.8,72.3,29.69,SW,215,0.0,0.0,92,0.00,,,0.00,Wunderground v.1.15,2013-06-28 04:15:00,
2013-06-28 00:20:00,74.7,72.2,29.69,SW,215,0.0,0.0,92,0.00,,,0.00,Wunderground v.1.15,2013-06-28 04:20:00,
2013-06-28 00:25:00,74.6,72.1,29.68,SW,215,0.0,0.0,92,0.00,,,0.00,Wunderground v.1.15,2013-06-28 04:25:00,
2013-06-28 00:30:00,74.5,72.0,29.69,SW,215,0.0,0.0,92,0.00,,,0.00,Wunderground v.1.15,2013-06-28 04:30:00,
2013-06-28 00:35:00,74.4,71.9,29.68,SW,215,0.0,0.0,92,0.00,,,0.00,Wunderground v.1.15,2013-06-28 04:35:00,
2013-06-28 00:40:00,74.3,71.8,29.68,SW,215,0.0,0.0,92,0.00,,,0.00,Wunderground v.1.15,2013-06-28 04:40:00,
2013-06-28 00:45:00,74.2,71.7,29.68,SW,215,0.0,0.0,92,0.00,,,0.00,Wunderground v.1.15,2013-06-28 04:45:00,
2013-06-28 00:50:00,74.2,71.7,29.68,SW,215,0.0,0.0,92,0.00,,,0.00,Wunderground v.1.15,2013-06-28 04:50:00,
2013-06-28 00:55:00,74.1,71.6,29.68,SW,215,0.0,0.0,92,0.00,,,0.00,Wunderground v.1.15,2013-06-28 04:55:00,
2013-06-28 01:00:00,74.0,71.5,29.68,SW,216,0.0,0.0,92,0.00,,,0.00,Wunderground v.1.15,2013-06-28 05:00:00,
2013-06-28 01:10:00,73.9,71.4,29.68,SW,215,0.0,0.0,92,0.00,,,0.00,Wunderground v.1.15,2013-06-28 05:10:00,
2013-06-28 01:15:00,73.8,71.6,29.68,SW,216,0.0,0.0,93,0.00,,,0.00,Wunderground v.1.15,2013-06-28 05:15:00,
2013-06-28 01:20:00,73.7,71.5,29.68,SW,216,0.0,0.0,93,0.00,,,0.00,Wunderground v.1.15,2013-06-28 05:20:00,
2013-06-28 01:25:00,73.6,71.4,29.68,SW,217,0.0,0.0,93,0.00,,,0.00,Wunderground v.1.15,2013-06-28 05:25:00,
2013-06-28 01:30:00,73.5,71.4,29.68,SW,215,0.0,0.0,93,0.00,,,0.00,Wunderground v.1.15,2013-06-28 05:30:00,
2013-06-28 01:35:00,73.4,71.6,29.68,SW,217,0.0,1.0,94,0.00,,,0.00,Wunderground v.1.15,2013-06-28 05:35:00,
2013-06-28 01:45:00,73.3,71.5,29.68,SW,215,0.0,0.0,94,0.00,,,0.00,Wunderground v.1.15,2013-06-28 05:45:00,
2013-06-28 01:50:00,73.2,71.4,29.68,SW,215,0.0,0.0,94,0.00,,,0.00,Wunderground v.1.15,2013-06-28 05:50:00,
2013-06-28 01:55:00,73.2,71.4,29.68,SW,217,0.0,0.0,94,0.00,,,0.00,Wunderground v.1.15,2013-06-28 05:55:00,
2013-06-28 02:00:00,73.1,71.3,29.68,SW,217,0.0,0.0,94,0.00,,,0.00,Wunderground v.1.15,2013-06-28 06:00:00,
2013-06-28 02:05:00,73.0,71.2,29.69,SW,216,0.0,0.0,94,0.00,,,0.00,Wunderground v.1.15,2013-06-28 06:05:00,
2013-06-28 02:10:00,72.9,71.4,29.68,SW,215,0.0,0.0,95,0.00,,,0.00,Wunderground v.1.15,2013-06-28 06:10:00,
2013-06-28 02:15:00,72.9,71.4,29.68,SW,216,0.0,0.0,95,0.00,,,0.00,Wunderground v.1.15,2013-06-28 06:15:00,
2013-06-28 02:20:00,72.8,71.3,29.68,SW,216,0.0,0.0,95,0.00,,,0.00,Wunderground v.1.15,2013-06-28 06:20:00,
2013-06-28 02:25:00,72.8,71.3,29.68,SW,216,0.0,0.0,95,0.00,,,0.00,Wunderground v.1.15,2013-06-28 06:25:00,
2013-06-28 02:30:00,72.7,71.2,29.68,SW,215,0.0,0.0,95,0.00,,,0.00,Wunderground v.1.15,2013-06-28 06:30:00,
2013-06-28 02:40:00,72.7,71.2,29.68,SW,217,0.0,0.0,95,0.00,,,0.00,Wunderground v.1.15,2013-06-28 06:40:00,
2013-06-28 02:45:00,72.6,71.1,29.68,SW,215,0.0,0.0,95,0.00,,,0.00,Wunderground v.1.15,2013-06-28 06:45:00,
2013-06-28 02:50:00,72.6,71.1,29.68,SW,216,0.0,0.0,95,0.00,,,0.00,Wunderground v.1.15,2013-06-28 06:50:00,
2013-06-28 02:55:00,72.5,71.0,29.68,SW,216,0.0,0.0,95,0.00,,,0.00,Wunderground v.1.15,2013-06-28 06:55:00,
2013-06-28 03:00:00,72.6,71.1,29.67,SW,216,0.0,0.0,95,0.00,,,0.00,Wunderground v.1.15,2013-06-28 07:00:00,
2013-06-28 03:05:00,72.6,71.4,29.67,SW,216,0.0,0.0,96,0.00,,,0.00,Wunderground v.1.15,2013-06-28 07:05:00,
2013-06-28 03:10:00,72.5,71.3,29.67,SW,216,0.0,0.0,96,0.00,,,0.00,Wunderground v.1.15,2013-06-28 07:10:00,
2013-06-28 03:15:00,72.5,71.3,29.67,SW,216,0.0,0.0,96,0.00,,,0.00,Wunderground v.1.15,2013-06-28 07:15:00,
2013-06-28 03:20:00,72.5,71.3,29.67,SW,217,0.0,0.0,96,0.00,,,0.00,Wunderground v.1.15,2013-06-28 07:20:00,
2013-06-28 03:25:00,72.5,71.3,29.67,SW,215,0.0,0.0,96,0.00,,,0.00,Wunderground v.1.15,2013-06-28 07:25:00,
2013-06-28 03:30:00,72.6,71.4,29.66,SW,217,0.0,0.0,96,0.00,,,0.00,Wunderground v.1.15,2013-06-28 07:30:00,
2013-06-28 03:35:00,72.7,71.5,29.66,SW,216,0.0,0.0,96,0.00,,,0.00,Wunderground v.1.15,2013-06-28 07:35:00,
2013-06-28 03:40:00,72.7,71.5,29.66,SW,216,0.0,0.0,96,0.00,,,0.00,Wunderground v.1.15,2013-06-28 07:40:00,
2013-06-28 03:45:00,72.8,71.6,29.66,SW,216,0.0,0.0,96,0.00,,,0.00,Wunderground v.1.15,2013-06-28 07:45:00,
2013-06-28 03:50:00,72.9,71.7,29.65,SW,216,0.0,0.0,96,0.00,,,0.00,Wunderground v.1.15,2013-06-28 07:50:00,
2013-06-28 03:55:00,73.1,71.9,29.65,SW,217,0.0,0.0,96,0.00,,,0.00,Wunderground v.1.15,2013-06-28 07:55:00,
2013-06-28 04:00:00,73.2,72.0,29.65,SW,215,0.0,0.0,96,0.00,,,0.00,Wunderground v.1.15,2013-06-28 08:00:00,
2013-06-28 04:05:00,73.2,72.0,29.65,SSE,165,0.0,0.0,96,0.00,,,0.00,Wunderground v.1.15,2013-06-28 08:05:00,
2013-06-28 04:10:00,73.3,72.1,29.64,SSW,207,0.0,0.0,96,0.00,,,0.00,Wunderground v.1.15,2013-06-28 08:10:00,
2013-06-28 04:15:00,73.3,72.1,29.64,SW,226,0.0,0.0,96,0.00,,,0.00,Wunderground v.1.15,2013-06-28 08:15:00,
2013-06-28 04:20:00,73.3,72.1,29.64,SW,222,0.0,0.0,96,0.00,,,0.00,Wunderground v.1.15,2013-06-28 08:20:00,
2013-06-28 04:25:00,73.3,72.1,29.64,SW,222,0.0,0.0,96,0.00,,,0.00,Wunderground v.1.15,2013-06-28 08:25:00,
2013-06-28 04:30:00,73.2,72.0,29.64,SW,218,0.0,0.0,96,0.00,,,0.00,Wunderground v.1.15,2013-06-28 08:30:00,
2013-06-28 04:35:00,73.2,72.0,29.64,SW,218,0.0,0.0,96,0.00,,,0.00,Wunderground v.1.15,2013-06-28 08:35:00,
2013-06-28 04:40:00,73.2,72.0,29.64,SW,218,0.0,0.0,96,0.00,,,0.00,Wunderground v.1.15,2013-06-28 08:40:00,
2013-06-28 04:45:00,73.1,71.9,29.64,SW,218,0.0,0.0,96,0.00,,,0.00,Wunderground v.1.15,2013-06-28 08:45:00,
2013-06-28 04:50:00,73.0,71.8,29.64,SW,218,0.0,0.0,96,0.00,,,0.00,Wunderground v.1.15,2013-06-28 08:50:00,
2013-06-28 04:55:00,72.9,71.7,29.64,SW,218,0.0,0.0,96,0.00,,,0.00,Wunderground v.1.15,2013-06-28 08:55:00,
2013-06-28 05:00:00,72.9,71.7,29.64,SW,218,0.0,0.0,96,0.00,,,0.00,Wunderground v.1.15,2013-06-28 09:00:00,
2013-06-28 05:10:00,72.9,71.7,29.63,SW,214,0.0,0.0,96,0.00,,,0.00,Wunderground v.1.15,2013-06-28 09:10:00,
2013-06-28 05:15:00,72.9,71.7,29.64,SW,214,0.0,0.0,96,0.00,,,0.00,Wunderground v.1.15,2013-06-28 09:15:00,
2013-06-28 05:20:00,72.9,71.7,29.64,SW,214,0.0,0.0,96,0.00,,,0.00,Wunderground v.1.15,2013-06-28 09:20:00,
2013-06-28 05:30:00,73.0,71.8,29.64,SW,214,0.0,0.0,96,0.00,,,0.00,Wunderground v.1.15,2013-06-28 09:30:00,
2013-06-28 05:35:00,73.0,71.8,29.63,SSW,212,0.0,1.0,96,0.00,,,0.00,Wunderground v.1.15,2013-06-28 09:35:00,
2013-06-28 05:40:00,73.0,71.8,29.63,SW,216,0.0,1.0,96,0.00,,,0.00,Wunderground v.1.15,2013-06-28 09:40:00,
2013-06-28 05:45:00,73.1,71.9,29.63,SW,216,0.0,1.0,96,0.00,,,0.00,Wunderground v.1.15,2013-06-28 09:45:00,
2013-06-28 05:50:00,73.1,71.9,29.63,SE,138,0.0,1.0,96,0.00,,,0.00,Wunderground v.1.15,2013-06-28 09:50:00,
2013-06-28 05:55:00,73.1,71.9,29.63,SE,143,0.0,1.0,96,0.00,,,0.00,Wunderground v.1.15,2013-06-28 09:55:00,
2013-06-28 06:00:00,73.2,72.0,29.63,SSE,151,0.0,0.0,96,0.00,,,0.00,Wunderground v.1.15,2013-06-28 10:00:00,
2013-06-28 06:10:00,73.2,72.0,29.64,NNE,18,0.0,1.0,96,0.00,,,0.00,Wunderground v.1.15,2013-06-28 10:10:00,
2013-06-28 06:15:00,73.3,72.1,29.64,NNE,18,0.0,1.0,96,0.00,,,0.00,Wunderground v.1.15,2013-06-28 10:15:00,
2013-06-28 06:20:00,73.3,72.1,29.64,NNE,18,0.0,0.0,96,0.00,,,0.00,Wunderground v.1.15,2013-06-28 10:20:00,
2013-06-28 06:25:00,73.4,72.2,29.64,NNE,18,0.0,1.0,96,0.00,,,0.00,Wunderground v.1.15,2013-06-28 10:25:00,
2013-06-28 06:30:00,73.5,72.3,29.64,WNW,292,0.0,0.0,96,0.00,,,0.00,Wunderground v.1.15,2013-06-28 10:30:00,
2013-06-28 06:35:00,73.5,72.3,29.64,WNW,293,0.0,0.0,96,0.00,,,0.00,Wunderground v.1.15,2013-06-28 10:35:00,
2013-06-28 06:40:00,73.6,72.4,29.63,WNW,293,0.0,0.0,96,0.00,,,0.00,Wunderground v.1.15,2013-06-28 10:40:00,
2013-06-28 06:50:00,73.7,72.5,29.64,SW,231,0.0,0.0,96,0.00,,,0.00,Wunderground v.1.15,2013-06-28 10:50:00,
2013-06-28 06:55:00,73.7,72.5,29.64,SW,231,0.0,0.0,96,0.00,,,0.00,Wunderground v.1.15,2013-06-28 10:55:00,
2013-06-28 07:00:00,73.8,72.6,29.64,SW,231,0.0,0.0,96,0.00,,,0.00,Wunderground v.1.15,2013-06-28 11:00:00,
2013-06-28 07:10:00,73.9,72.7,29.64,SW,231,0.0,0.0,96,0.00,,,0.00,Wunderground v.1.15,2013-06-28 11:10:00,
2013-06-28 07:20:00,74.0,72.8,29.64,SW,231,0.0,0.0,96,0.00,,,0.00,Wunderground v.1.15,2013-06-28 11:20:00,
2013-06-28 07:25:00,74.1,72.9,29.64,ESE,113,0.0,0.0,96,0.00,,,0.00,Wunderground v.1.15,2013-06-28 11:25:00,
2013-06-28 07:30:00,74.1,72.9,29.64,SW,216,0.0,0.0,96,0.00,,,0.00,Wunderground v.1.15,2013-06-28 11:30:00,
2013-06-28 07:35:00,74.2,73.0,29.64,SSW,208,0.0,0.0,96,0.00,,,0.00,Wunderground v.1.15,2013-06-28 11:35:00,
2013-06-28 07:40:00,74.3,73.1,29.64,SW,224,0.0,0.0,96,0.00,,,0.00,Wunderground v.1.15,2013-06-28 11:40:00,
2013-06-28 07:50:00,74.5,73.0,29.64,SSW,203,0.0,0.0,95,0.00,,,0.00,Wunderground v.1.15,2013-06-28 11:50:00,
2013-06-28 07:55:00,74.6,73.1,29.64,SSW,203,0.0,1.0,95,0.00,,,0.00,Wunderground v.1.15,2013-06-28 11:55:00,
2013-06-28 08:00:00,74.6,72.8,29.64,West,269,0.0,0.0,94,0.00,,,0.00,Wunderground v.1.15,2013-06-28 12:00:00,
2013-06-28 08:05:00,74.8,73.0,29.64,West,268,0.0,0.0,94,0.00,,,0.00,Wunderground v.1.15,2013-06-28 12:05:00,
2013-06-28 08:10:00,74.9,72.7,29.64,SW,221,0.0,0.0,93,0.00,,,0.00,Wunderground v.1.15,2013-06-28 12:10:00,
2013-06-28 08:15:00,75.0,72.8,29.64,SE,139,0.0,0.0,93,0.00,,,0.00,Wunderground v.1.15,2013-06-28 12:15:00,
2013-06-28 08:20:00,75.2,73.0,29.64,SSW,207,0.0,0.0,93,0.00,,,0.00,Wunderground v.1.15,2013-06-28 12:20:00,
2013-06-28 08:25:00,75.4,72.9,29.65,SSW,200,0.0,0.0,92,0.00,,,0.00,Wunderground v.1.15,2013-06-28 12:25:00,
2013-06-28 08:30:00,75.6,73.1,29.64,NNE,31,0.0,0.0,92,0.00,,,0.00,Wunderground v.1.15,2013-06-28 12:30:00,
2013-06-28 08:35:00,75.8,73.3,29.64,NNE,31,0.0,0.0,92,0.00,,,0.00,Wunderground v.1.15,2013-06-28 12:35:00,
2013-06-28 08:40:00,75.9,73.1,29.65,North,357,0.0,0.0,91,0.00,,,0.00,Wunderground v.1.15,2013-06-28 12:40:00,
2013-06-28 08:45:00,76.1,73.3,29.65,SSW,200,0.0,0.0,91,0.00,,,0.00,Wunderground v.1.15,2013-06-28 12:45:00,
2013-06-28 08:50:00,76.2,73.4,29.65,SSE,165,0.0,0.0,91,0.00,,,0.00,Wunderground v.1.15,2013-06-28 12:50:00,
2013-06-28 08:55:00,76.3,73.5,29.65,SSE,165,0.0,0.0,91,0.00,,,0.00,Wunderground v.1.15,2013-06-28 12:55:00,
2013-06-28 09:00:00,76.4,73.2,29.65,SSW,208,0.0,1.0,90,0.00,,,0.00,Wunderground v.1.15,2013-06-28 13:00:00,
2013-06-28 09:05:00,76.5,73.3,29.65,SW,214,0.0,1.0,90,0.00,,,0.00,Wunderground v.1.15,2013-06-28 13:05:00,
2013-06-28 09:10:00,76.6,73.1,29.65,WSW,245,0.0,0.0,89,0.00,,,0.00,Wunderground v.1.15,2013-06-28 13:10:00,
2013-06-28 09:15:00,76.8,73.6,29.64,WSW,245,0.0,1.0,90,0.00,,,0.00,Wunderground v.1.15,2013-06-28 13:15:00,
2013-06-28 09:20:00,77.0,73.5,29.65,WSW,253,0.0,0.0,89,0.00,,,0.00,Wunderground v.1.15,2013-06-28 13:20:00,
2013-06-28 09:25:00,77.2,73.7,29.64,WSW,253,0.0,0.0,89,0.00,,,0.00,Wunderground v.1.15,2013-06-28 13:25:00,
2013-06-28 09:30:00,77.4,73.9,29.64,SW,221,0.0,0.0,89,0.00,,,0.00,Wunderground v.1.15,2013-06-28 13:30:00,
2013-06-28 09:35:00,77.5,74.0,29.64,West,266,0.0,1.0,89,0.00,,,0.00,Wunderground v.1.15,2013-06-28 13:35:00,
2013-06-28 09:40:00,77.6,73.8,29.64,SW,218,0.0,0.0,88,0.00,,,0.00,Wunderground v.1.15,2013-06-28 13:40:00,
2013-06-28 09:45:00,77.8,74.0,29.64,West,275,0.0,0.0,88,0.00,,,0.00,Wunderground v.1.15,2013-06-28 13:45:00,
2013-06-28 09:50:00,77.9,73.7,29.64,WNW,286,0.0,0.0,87,0.00,,,0.00,Wunderground v.1.15,2013-06-28 13:50:00,
2013-06-28 09:55:00,78.2,74.0,29.64,NNE,12,0.0,0.0,87,0.00,,,0.00,Wunderground v.1.15,2013-06-28 13:55:00,
2013-06-28 10:00:00,78.5,74.0,29.64,WNW,283,1.0,1.0,86,0.00,,,0.00,Wunderground v.1.15,2013-06-28 14:00:00,
2013-06-28 10:05:00,78.8,74.3,29.64,SSW,211,1.0,1.0,86,0.00,,,0.00,Wunderground v.1.15,2013-06-28 14:05:00,
2013-06-28 10:10:00,79.1,74.5,29.64,SSW,204,1.0,1.0,86,0.00,,,0.00,Wunderground v.1.15,2013-06-28 14:10:00,
2013-06-28 10:15:00,79.2,74.3,29.64,SW,214,0.0,1.0,85,0.00,,,0.00,Wunderground v.1.15,2013-06-28 14:15:00,
2013-06-28 10:20:00,79.5,74.2,29.64,SSW,200,1.0,1.0,84,0.00,,,0.00,Wunderground v.1.15,2013-06-28 14:20:00,
2013-06-28 10:25:00,79.7,74.8,29.64,SW,227,1.0,1.0,85,0.00,,,0.00,Wunderground v.1.15,2013-06-28 14:25:00,
2013-06-28 10:30:00,80.1,74.5,29.63,West,280,0.0,0.0,83,0.00,,,0.00,Wunderground v.1.15,2013-06-28 14:30:00,
2013-06-28 10:35:00,80.6,75.3,29.64,ESE,113,0.0,0.0,84,0.00,,,0.00,Wunderground v.1.15,2013-06-28 14:35:00,
2013-06-28 10:40:00,81.0,75.0,29.64,WSW,245,1.0,1.0,82,0.00,,,0.00,Wunderground v.1.15,2013-06-28 14:40:00,
2013-06-28 10:45:00,81.4,75.4,29.64,ESE,121,1.0,1.0,82,0.00,,,0.00,Wunderground v.1.15,2013-06-28 14:45:00,
2013-06-28 10:50:00,81.6,74.8,29.64,NNE,13,0.0,1.0,80,0.00,,,0.00,Wunderground v.1.15,2013-06-28 14:50:00,
2013-06-28 10:55:00,81.9,74.7,29.64,WSW,250,1.0,1.0,79,0.00,,,0.00,Wunderground v.1.15,2013-06-28 14:55:00,
2013-06-28 11:00:00,82.4,75.6,29.64,SW,219,1.0,1.0,80,0.00,,,0.00,Wunderground v.1.15,2013-06-28 15:00:00,
2013-06-28 11:05:00,82.6,74.7,29.64,SSW,210,0.0,1.0,77,0.00,,,0.00,Wunderground v.1.15,2013-06-28 15:05:00,
2013-06-28 11:10:00,83.0,75.4,29.64,SSW,208,0.0,0.0,78,0.00,,,0.00,Wunderground v.1.15,2013-06-28 15:10:00,
2013-06-28 11:15:00,83.3,74.9,29.64,SW,229,1.0,2.0,76,0.00,,,0.00,Wunderground v.1.15,2013-06-28 15:15:00,
2013-06-28 11:20:00,83.7,75.3,29.63,SSW,211,1.0,1.0,76,0.00,,,0.00,Wunderground v.1.15,2013-06-28 15:20:00,
2013-06-28 11:30:00,84.4,74.8,29.63,SW,217,0.0,1.0,73,0.00,,,0.00,Wunderground v.1.15,2013-06-28 15:30:00,
2013-06-28 11:35:00,85.0,75.0,29.64,SSW,203,0.0,1.0,72,0.00,,,0.00,Wunderground v.1.15,2013-06-28 15:35:00,
2013-06-28 11:40:00,85.4,74.5,29.63,SW,219,0.0,2.0,70,0.00,,,0.00,Wunderground v.1.15,2013-06-28 15:40:00,
2013-06-28 11:45:00,86.0,74.6,29.63,SW,219,1.0,2.0,69,0.00,,,0.00,Wunderground v.1.15,2013-06-28 15:45:00,
2013-06-28 11:50:00,86.7,75.3,29.63,NW,309,1.0,1.0,69,0.00,,,0.00,Wunderground v.1.15,2013-06-28 15:50:00,
2013-06-28 11:55:00,87.4,76.0,29.63,SW,222,1.0,1.0,69,0.00,,,0.00,Wunderground v.1.15,2013-06-28 15:55:00,
2013-06-28 12:00:00,87.9,75.6,29.62,SW,222,1.0,2.0,67,0.00,,,0.00,Wunderground v.1.15,2013-06-28 16:00:00,
2013-06-28 12:05:00,87.9,75.6,29.62,South,176,1.0,2.0,67,0.00,,,0.00,Wunderground v.1.15,2013-06-28 16:05:00,
2013-06-28 12:10:00,88.3,75.0,29.63,SSW,203,0.0,0.0,65,0.00,,,0.00,Wunderground v.1.15,2013-06-28 16:10:00,
2013-06-28 12:15:00,88.5,74.3,29.63,SSW,208,0.0,0.0,63,0.00,,,0.00,Wunderground v.1.15,2013-06-28 16:15:00,
2013-06-28 12:20:00,89.0,74.8,29.63,SE,145,0.0,0.0,63,0.00,,,0.00,Wunderground v.1.15,2013-06-28 16:20:00,
2013-06-28 12:25:00,89.4,74.2,29.63,SW,219,0.0,1.0,61,0.00,,,0.00,Wunderground v.1.15,2013-06-28 16:25:00,
2013-06-28 12:30:00,89.5,73.8,29.62,NW,316,1.0,1.0,60,0.00,,,0.00,Wunderground v.1.15,2013-06-28 16:30:00,
2013-06-28 12:35:00,89.7,74.5,29.62,NW,305,1.0,1.0,61,0.00,,,0.00,Wunderground v.1.15,2013-06-28 16:35:00,
2013-06-28 12:40:00,90.0,73.7,29.62,NE,42,1.0,1.0,59,0.00,,,0.00,Wunderground v.1.15,2013-06-28 16:40:00,
2013-06-28 12:45:00,89.9,74.2,29.62,SSW,204,1.0,1.0,60,0.00,,,0.00,Wunderground v.1.15,2013-06-28 16:45:00,
2013-06-28 12:50:00,89.7,74.0,29.62,SSW,211,1.0,1.0,60,0.00,,,0.00,Wunderground v.1.15,2013-06-28 16:50:00,
2013-06-28 12:55:00,89.5,73.3,29.62,SW,218,0.0,1.0,59,0.00,,,0.00,Wunderground v.1.15,2013-06-28 16:55:00,
2013-06-28 13:00:00,89.6,74.9,29.62,South,183,0.0,1.0,62,0.00,,,0.00,Wunderground v.1.15,2013-06-28 17:00:00,
2013-06-28 13:10:00,90.0,74.2,29.62,SW,215,1.0,1.0,60,0.00,,,0.00,Wunderground v.1.15,2013-06-28 17:10:00,
2013-06-28 13:15:00,90.2,74.9,29.61,SSW,211,1.0,1.0,61,0.00,,,0.00,Wunderground v.1.15,2013-06-28 17:15:00,
2013-06-28 13:20:00,90.2,75.4,29.61,SE,131,1.0,1.0,62,0.00,,,0.00,Wunderground v.1.15,2013-06-28 17:20:00,
2013-06-28 13:25:00,90.4,73.6,29.61,SW,217,1.0,1.0,58,0.00,,,0.00,Wunderground v.1.15,2013-06-28 17:25:00,
2013-06-28 13:30:00,91.1,75.3,29.61,SW,217,1.0,1.0,60,0.00,,,0.00,Wunderground v.1.15,2013-06-28 17:30:00,
2013-06-28 13:35:00,91.5,75.7,29.61,South,184,0.0,1.0,60,0.00,,,0.00,Wunderground v.1.15,2013-06-28 17:35:00,
2013-06-28 13:40:00,91.8,74.9,29.61,SSW,205,1.0,1.0,58,0.00,,,0.00,Wunderground v.1.15,2013-06-28 17:40:00,
2013-06-28 13:45:00,92.1,75.2,29.60,NE,51,1.0,1.0,58,0.00,,,0.00,Wunderground v.1.15,2013-06-28 17:45:00,
2013-06-28 13:50:00,92.5,74.5,29.60,SSW,207,1.0,1.0,56,0.00,,,0.00,Wunderground v.1.15,2013-06-28 17:50:00,
2013-06-28 13:55:00,92.7,74.7,29.60,SE,138,1.0,1.0,56,0.00,,,0.00,Wunderground v.1.15,2013-06-28 17:55:00,
2013-06-28 14:00:00,93.2,74.1,29.60,SSW,212,1.0,2.0,54,0.00,,,0.00,Wunderground v.1.15,2013-06-28 18:00:00,
2013-06-28 14:05:00,93.4,74.3,29.60,NE,41,1.0,2.0,54,0.00,,,0.00,Wunderground v.1.15,2013-06-28 18:05:00,
2013-06-28 14:10:00,93.8,74.6,29.60,WNW,288,1.0,1.0,54,0.00,,,0.00,Wunderground v.1.15,2013-06-28 18:10:00,
2013-06-28 14:15:00,94.0,74.8,29.60,SSW,210,1.0,1.0,54,0.00,,,0.00,Wunderground v.1.15,2013-06-28 18:15:00,
2013-06-28 14:20:00,93.9,74.2,29.60,SW,219,1.0,2.0,53,0.00,,,0.00,Wunderground v.1.15,2013-06-28 18:20:00,
2013-06-28 14:25:00,93.5,74.4,29.60,NE,43,1.0,2.0,54,0.00,,,0.00,Wunderground v.1.15,2013-06-28 18:25:00,
2013-06-28 14:30:00,92.9,74.9,29.60,NNE,23,1.0,3.0,56,0.00,,,0.00,Wunderground v.1.15,2013-06-28 18:30:00,
2013-06-28 14:35:00,92.7,74.2,29.60,SW,219,1.0,3.0,55,0.00,,,0.00,Wunderground v.1.15,2013-06-28 18:35:00,
2013-06-28 14:40:00,92.6,74.6,29.60,SW,219,1.0,1.0,56,0.00,,,0.00,Wunderground v.1.15,2013-06-28 18:40:00,
2013-06-28 14:45:00,92.4,73.9,29.59,SSW,207,1.0,1.0,55,0.00,,,0.00,Wunderground v.1.15,2013-06-28 18:45:00,
2013-06-28 14:50:00,92.5,75.0,29.59,SW,225,1.0,1.0,57,0.00,,,0.00,Wunderground v.1.15,2013-06-28 18:50:00,
2013-06-28 15:00:00,93.4,75.9,29.59,SW,214,0.0,1.0,57,0.00,,,0.00,Wunderground v.1.15,2013-06-28 19:00:00,
2013-06-28 15:10:00,93.3,75.8,29.58,ESE,115,1.0,1.0,57,0.00,,,0.00,Wunderground v.1.15,2013-06-28 19:10:00,
2013-06-28 15:15:00,93.7,75.6,29.57,South,189,1.0,1.0,56,0.00,,,0.00,Wunderground v.1.15,2013-06-28 19:15:00,
2013-06-28 15:20:00,93.8,75.7,29.57,South,186,1.0,1.0,56,0.00,,,0.00,Wunderground v.1.15,2013-06-28 19:20:00,
2013-06-28 15:25:00,94.0,74.8,29.57,SSW,194,1.0,1.0,54,0.00,,,0.00,Wunderground v.1.15,2013-06-28 19:25:00,
2013-06-28 15:30:00,94.1,75.5,29.57,SSW,200,1.0,1.0,55,0.00,,,0.00,Wunderground v.1.15,2013-06-28 19:30:00,
2013-06-28 15:35:00,93.9,74.7,29.57,SW,218,1.0,1.0,54,0.00,,,0.00,Wunderground v.1.15,2013-06-28 19:35:00,
2013-06-28 15:40:00,93.7,74.5,29.57,SW,214,1.0,1.0,54,0.00,,,0.00,Wunderground v.1.15,2013-06-28 19:40:00,
2013-06-28 15:45:00,93.8,75.2,29.57,SW,225,1.0,2.0,55,0.00,,,0.00,Wunderground v.1.15,2013-06-28 19:45:00,
2013-06-28 15:50:00,94.0,75.9,29.56,SE,133,1.0,1.0,56,0.00,,,0.00,Wunderground v.1.15,2013-06-28 19:50:00,
2013-06-28 15:55:00,94.2,75.0,29.56,SSW,197,1.0,1.0,54,0.00,,,0.00,Wunderground v.1.15,2013-06-28 19:55:00,
2013-06-28 16:00:00,93.9,75.3,29.56,North,10,1.0,1.0,55,0.00,,,0.00,Wunderground v.1.15,2013-06-28 20:00:00,
2013-06-28 16:05:00,94.0,75.9,29.55,SSW,201,1.0,1.0,56,0.00,,,0.00,Wunderground v.1.15,2013-06-28 20:05:00,
2013-06-28 16:10:00,93.8,75.2,29.55,SSW,201,1.0,1.0,55,0.00,,,0.00,Wunderground v.1.15,2013-06-28 20:10:00,
2013-06-28 16:15:00,93.4,75.4,29.55,SSE,155,1.0,1.0,56,0.00,,,0.00,Wunderground v.1.15,2013-06-28 20:15:00,
2013-06-28 16:20:00,93.2,75.7,29.54,SSW,208,1.0,1.0,57,0.00,,,0.00,Wunderground v.1.15,2013-06-28 20:20:00,
2013-06-28 16:25:00,93.8,76.3,29.54,South,184,0.0,1.0,57,0.00,,,0.00,Wunderground v.1.15,2013-06-28 20:25:00,
2013-06-28 16:30:00,94.3,75.6,29.54,South,184,0.0,1.0,55,0.00,,,0.00,Wunderground v.1.15,2013-06-28 20:30:00,
2013-06-28 16:35:00,93.9,75.8,29.53,SW,225,1.0,1.0,56,0.00,,,0.00,Wunderground v.1.15,2013-06-28 20:35:00,
2013-06-28 16:40:00,93.9,75.8,29.53,SW,215,1.0,1.0,56,0.00,,,0.00,Wunderground v.1.15,2013-06-28 20:40:00,
2013-06-28 16:45:00,93.9,74.7,29.52,SSW,204,1.0,1.0,54,0.00,,,0.00,Wunderground v.1.15,2013-06-28 20:45:00,
2013-06-28 16:50:00,94.0,74.8,29.52,SSW,208,1.0,1.0,54,0.00,,,0.00,Wunderground v.1.15,2013-06-28 20:50:00,
2013-06-28 16:55:00,93.8,74.6,29.52,SW,215,1.0,1.0,54,0.00,,,0.00,Wunderground v.1.15,2013-06-28 20:55:00,
2013-06-28 17:00:00,93.5,74.4,29.52,SSW,201,1.0,1.0,54,0.00,,,0.00,Wunderground v.1.15,2013-06-28 21:00:00,
2013-06-28 17:05:00,92.9,74.9,29.52,SW,222,1.0,1.0,56,0.00,,,0.00,Wunderground v.1.15,2013-06-28 21:05:00,
2013-06-28 17:15:00,92.6,74.6,29.52,SSW,194,1.0,1.0,56,0.00,,,0.00,Wunderground v.1.15,2013-06-28 21:15:00,
2013-06-28 17:20:00,91.8,74.4,29.52,SSW,211,1.0,1.0,57,0.00,,,0.00,Wunderground v.1.15,2013-06-28 21:20:00,
2013-06-28 17:25:00,91.0,74.2,29.53,SW,217,1.0,1.0,58,0.00,,,0.00,Wunderground v.1.15,2013-06-28 21:25:00,
2013-06-28 17:30:00,90.2,74.4,29.52,ENE,60,1.0,2.0,60,0.00,,,0.00,Wunderground v.1.15,2013-06-28 21:30:00,
2013-06-28 17:35:00,89.6,73.9,29.53,SW,215,1.0,2.0,60,0.00,,,0.00,Wunderground v.1.15,2013-06-28 21:35:00,
2013-06-28 17:40:00,89.1,74.4,29.53,SSW,213,1.0,1.0,62,0.00,,,0.00,Wunderground v.1.15,2013-06-28 21:40:00,
2013-06-28 17:45:00,88.8,74.6,29.53,SSW,211,0.0,1.0,63,0.00,,,0.00,Wunderground v.1.15,2013-06-28 21:45:00,
2013-06-28 17:50:00,88.6,74.9,29.53,SSW,211,0.0,0.0,64,0.00,,,0.00,Wunderground v.1.15,2013-06-28 21:50:00,
2013-06-28 17:55:00,88.4,74.2,29.53,SSW,211,0.0,0.0,63,0.00,,,0.00,Wunderground v.1.15,2013-06-28 21:55:00,
2013-06-28 18:00:00,88.0,74.3,29.55,SSW,211,0.0,0.0,64,0.00,,,0.00,Wunderground v.1.15,2013-06-28 22:00:00,
2013-06-28 18:05:00,87.8,75.9,29.56,SSW,211,0.0,0.0,68,0.00,,,0.00,Wunderground v.1.15,2013-06-28 22:05:00,
2013-06-28 18:10:00,87.4,76.0,29.55,SSW,211,0.0,0.0,69,0.00,,,0.00,Wunderground v.1.15,2013-06-28 22:10:00,
2013-06-28 18:15:00,86.8,74.5,29.55,SSW,211,0.0,0.0,67,0.00,,,0.00,Wunderground v.1.15,2013-06-28 22:15:00,
2013-06-28 18:20:00,86.4,75.5,29.56,SSW,211,0.0,0.0,70,0.00,,,0.00,Wunderground v.1.15,2013-06-28 22:20:00,
2013-06-28 18:25:00,86.0,75.1,29.55,SSW,211,0.0,0.0,70,0.00,,,0.00,Wunderground v.1.15,2013-06-28 22:25:00,
2013-06-28 18:30:00,85.7,75.2,29.55,SSW,211,0.0,0.0,71,0.00,,,0.00,Wunderground v.1.15,2013-06-28 22:30:00,
2013-06-28 18:35:00,85.5,75.4,29.56,SSW,211,0.0,0.0,72,0.00,,,0.00,Wunderground v.1.15,2013-06-28 22:35:00,
2013-06-28 18:40:00,84.5,73.2,29.60,West,274,1.0,17.0,69,0.00,,,0.00,Wunderground v.1.15,2013-06-28 22:40:00,
2013-06-28 18:45:00,78.7,69.7,29.63,WNW,300,5.0,17.0,74,2.84,,,0.10,Wunderground v.1.15,2013-06-28 22:45:00,
2013-06-28 18:50:00,74.0,68.9,29.62,NW,325,8.0,8.0,84,2.92,,,0.32,Wunderground v.1.15,2013-06-28 22:50:00,
2013-06-28 18:55:00,71.6,68.2,29.60,SW,229,7.0,8.0,89,2.58,,,0.63,Wunderground v.1.15,2013-06-28 22:55:00,
2013-06-28 19:00:00,70.4,68.3,29.59,North,5,6.0,6.0,93,2.98,,,0.93,Wunderground v.1.15,2013-06-28 23:00:00,
2013-06-28 19:05:00,70.7,69.5,29.57,SW,214,3.0,6.0,96,0.93,,,1.10,Wunderground v.1.15,2013-06-28 23:05:00,
2013-06-28 19:10:00,71.1,70.2,29.58,ENE,71,2.0,2.0,97,0.10,,,1.10,Wunderground v.1.15,2013-06-28 23:10:00,
2013-06-28 19:15:00,71.5,70.6,29.58,East,94,1.0,2.0,97,0.06,,,1.10,Wunderground v.1.15,2013-06-28 23:15:00,
2013-06-28 19:20:00,71.6,70.7,29.58,WSW,245,1.0,2.0,97,0.04,,,1.10,Wunderground v.1.15,2013-06-28 23:20:00,
2013-06-28 19:25:00,71.6,70.7,29.58,SW,218,0.0,3.0,97,0.00,,,1.10,Wunderground v.1.15,2013-06-28 23:25:00,
2013-06-28 19:30:00,71.7,70.8,29.57,SW,218,1.0,1.0,97,0.00,,,1.10,Wunderground v.1.15,2013-06-28 23:30:00,
2013-06-28 19:35:00,71.9,71.0,29.56,SW,218,0.0,1.0,97,0.00,,,1.10,Wunderground v.1.15,2013-06-28 23:35:00,
2013-06-28 19:40:00,72.1,71.2,29.56,WSW,257,0.0,1.0,97,0.00,,,1.10,Wunderground v.1.15,2013-06-28 23:40:00,
2013-06-28 19:45:00,72.2,71.3,29.56,WSW,257,0.0,1.0,97,0.00,,,1.10,Wunderground v.1.15,2013-06-28 23:45:00,
2013-06-28 19:50:00,72.4,71.5,29.56,WSW,257,0.0,1.0,97,0.00,,,1.10,Wunderground v.1.15,2013-06-28 23:50:00,
2013-06-28 19:55:00,72.5,71.6,29.56,WSW,257,0.0,1.0,97,0.00,,,1.10,Wunderground v.1.15,2013-06-28 23:55:00,
2013-06-28 20:00:00,72.6,71.7,29.56,WSW,257,0.0,0.0,97,0.00,,,1.10,Wunderground v.1.15,2013-06-29 00:00:00,
2013-06-28 20:05:00,72.7,71.8,29.56,WSW,257,0.0,0.0,97,0.00,,,1.10,Wunderground v.1.15,2013-06-29 00:05:00,
2013-06-28 20:10:00,72.8,71.9,29.55,WSW,257,0.0,0.0,97,0.00,,,1.10,Wunderground v.1.15,2013-06-29 00:10:00,
2013-06-28 20:20:00,72.8,71.9,29.56,WSW,257,0.0,0.0,97,0.00,,,1.10,Wunderground v.1.15,2013-06-29 00:20:00,
2013-06-28 20:25:00,72.7,71.8,29.57,SW,219,0.0,1.0,97,0.00,,,1.10,Wunderground v.1.15,2013-06-29 00:25:00,
2013-06-28 20:30:00,72.4,71.5,29.58,South,186,1.0,1.0,97,0.00,,,1.10,Wunderground v.1.15,2013-06-29 00:30:00,
2013-06-28 20:35:00,72.3,71.4,29.57,SSW,200,1.0,1.0,97,0.00,,,1.10,Wunderground v.1.15,2013-06-29 00:35:00,
2013-06-28 20:40:00,72.0,71.1,29.57,SW,216,1.0,1.0,97,0.00,,,1.10,Wunderground v.1.15,2013-06-29 00:40:00,
2013-06-28 20:45:00,71.8,70.9,29.57,SSW,204,1.0,1.0,97,0.00,,,1.10,Wunderground v.1.15,2013-06-29 00:45:00,
2013-06-28 20:50:00,71.8,70.9,29.57,SSW,204,1.0,1.0,97,0.00,,,1.10,Wunderground v.1.15,2013-06-29 00:50:00,
2013-06-28 20:55:00,71.7,71.1,29.57,SSW,209,0.0,1.0,98,0.00,,,1.10,Wunderground v.1.15,2013-06-29 00:55:00,
2013-06-28 21:00:00,71.8,71.2,29.57,SSW,208,0.0,0.0,98,0.00,,,1.10,Wunderground v.1.15,2013-06-29 01:00:00,
2013-06-28 21:05:00,71.8,71.2,29.56,SSW,208,0.0,0.0,98,0.00,,,1.10,Wunderground v.1.15,2013-06-29 01:05:00,
2013-06-28 21:10:00,71.8,71.2,29.56,SSW,209,0.0,0.0,98,0.00,,,1.10,Wunderground v.1.15,2013-06-29 01:10:00,
2013-06-28 21:15:00,71.9,71.3,29.56,SSW,208,0.0,0.0,98,0.00,,,1.10,Wunderground v.1.15,2013-06-29 01:15:00,
2013-06-28 21:20:00,71.9,71.3,29.56,SSW,208,0.0,0.0,98,0.00,,,1.10,Wunderground v.1.15,2013-06-29 01:20:00,
2013-06-28 21:25:00,71.8,71.2,29.56,SSW,208,0.0,0.0,98,0.00,,,1.10,Wunderground v.1.15,2013-06-29 01:25:00,
2013-06-28 21:30:00,71.8,71.2,29.57,SW,218,0.0,0.0,98,0.00,,,1.10,Wunderground v.1.15,2013-06-29 01:30:00,
2013-06-28 21:35:00,71.8,71.2,29.58,SW,225,0.0,0.0,98,0.00,,,1.10,Wunderground v.1.15,2013-06-29 01:35:00,
2013-06-28 21:40:00,71.7,71.1,29.58,SW,225,0.0,0.0,98,0.00,,,1.10,Wunderground v.1.15,2013-06-29 01:40:00,
2013-06-28 21:45:00,71.6,71.0,29.58,SW,225,0.0,0.0,98,0.00,,,1.10,Wunderground v.1.15,2013-06-29 01:45:00,
2013-06-28 21:50:00,71.6,71.0,29.58,SW,225,0.0,0.0,98,0.00,,,1.10,Wunderground v.1.15,2013-06-29 01:50:00,
2013-06-28 21:55:00,71.6,71.0,29.58,South,191,0.0,0.0,98,0.00,,,1.10,Wunderground v.1.15,2013-06-29 01:55:00,
2013-06-28 22:00:00,71.6,71.0,29.58,South,191,0.0,0.0,98,0.00,,,1.10,Wunderground v.1.15,2013-06-29 02:00:00,
2013-06-28 22:05:00,71.5,70.9,29.58,South,191,0.0,0.0,98,0.00,,,1.10,Wunderground v.1.15,2013-06-29 02:05:00,
2013-06-28 22:10:00,71.4,70.8,29.58,South,191,0.0,0.0,98,0.00,,,1.10,Wunderground v.1.15,2013-06-29 02:10:00,
2013-06-28 22:15:00,71.3,70.7,29.60,South,191,0.0,0.0,98,0.00,,,1.11,Wunderground v.1.15,2013-06-29 02:15:00,
2013-06-28 22:20:00,71.1,70.5,29.60,SSW,203,0.0,0.0,98,0.00,,,1.11,Wunderground v.1.15,2013-06-29 02:20:00,
2013-06-28 22:25:00,71.0,70.4,29.61,SW,214,0.0,0.0,98,0.00,,,1.11,Wunderground v.1.15,2013-06-29 02:25:00,
2013-06-28 22:30:00,70.9,70.3,29.61,SW,214,0.0,0.0,98,0.00,,,1.11,Wunderground v.1.15,2013-06-29 02:30:00,
2013-06-28 22:35:00,70.9,70.3,29.60,SW,214,0.0,0.0,98,0.55,,,1.14,Wunderground v.1.15,2013-06-29 02:35:00,
2013-06-28 22:40:00,70.9,70.3,29.60,SW,214,0.0,0.0,98,0.34,,,1.17,Wunderground v.1.15,2013-06-29 02:40:00,
2013-06-28 22:45:00,70.8,70.2,29.59,SW,214,0.0,0.0,98,0.15,,,1.19,Wunderground v.1.15,2013-06-29 02:45:00,
2013-06-28 22:50:00,70.9,70.3,29.60,SW,214,0.0,0.0,98,0.10,,,1.19,Wunderground v.1.15,2013-06-29 02:50:00,
2013-06-28 22:55:00,70.7,70.1,29.59,SW,214,0.0,0.0,98,0.39,,,1.21,Wunderground v.1.15,2013-06-29 02:55:00,
2013-06-28 23:00:00,70.7,70.1,29.59,SW,214,0.0,0.0,98,0.49,,,1.23,Wunderground v.1.15,2013-06-29 03:00:00,
2013-06-28 23:05:00,70.8,70.2,29.59,SW,214,0.0,0.0,98,0.17,,,1.26,Wunderground v.1.15,2013-06-29 03:05:00,
2013-06-28 23:10:00,70.9,70.3,29.60,SW,214,0.0,0.0,98,0.11,,,1.26,Wunderground v.1.15,2013-06-29 03:10:00,
2013-06-28 23:15:00,70.9,70.3,29.61,WSW,238,0.0,0.0,98,0.09,,,1.27,Wunderground v.1.15,2013-06-29 03:15:00,
2013-06-28 23:20:00,70.9,70.3,29.64,SW,217,0.0,0.0,98,0.14,,,1.28,Wunderground v.1.15,2013-06-29 03:20:00,
2013-06-28 23:25:00,70.9,70.3,29.64,ESE,103,1.0,2.0,98,2.14,,,1.43,Wunderground v.1.15,2013-06-29 03:25:00,
2013-06-28 23:30:00,70.8,70.2,29.62,WNW,286,1.0,1.0,98,0.50,,,1.56,Wunderground v.1.15,2013-06-29 03:30:00,
2013-06-28 23:35:00,70.8,70.2,29.61,NNE,33,2.0,3.0,98,0.79,,,1.60,Wunderground v.1.15,2013-06-29 03:35:00,
2013-06-28 23:40:00,70.7,70.1,29.60,WSW,243,2.0,2.0,98,0.15,,,1.62,Wunderground v.1.15,2013-06-29 03:40:00,
2013-06-28 23:45:00,70.6,70.0,29.59,WSW,246,1.0,2.0,98,0.11,,,1.62,Wunderground v.1.15,2013-06-29 03:45:00,
2013-06-28 23:50:00,70.6,70.0,29.59,WSW,245,1.0,1.0,98,0.14,,,1.64,Wunderground v.1.15,2013-06-29 03:50:00,
2013-06-28 23:55:00,70.6,70.0,29.59,WSW,245,0.0,2.0,98,0.11,,,1.65,Wunderground v.1.15,2013-06-29 03:55:00,